Time,TemperatureF,DewpointF,PressureIn,WindDirection,WindDirectionDegrees,WindSpeedMPH,WindSpeedGustMPH,Humidity,HourlyPrecipIn,Conditions,Clouds,dailyrainin,SoftwareType,DateUTC
2013-07-04 00:01:00,77.0,0.0,30.87,SSW,202,5.0,5.0,0,0.00,,,0.00,VWS V14.01,2013-07-04 04:01:00,
2013-07-04 00:06:00,77.0,0.0,30.88,SSW,202,4.0,7.0,0,0.00,,,0.00,VWS V14.01,2013-07-04 04:06:00,
2013-07-04 00:11:00,76.0,0.0,30.88,SSW,202,4.0,7.0,0,0.00,,,0.00,VWS V14.01,2013-07-04 04:11:00,
2013-07-04 00:16:00,76.0,0.0,30.89,SSW,202,0.0,5.0,0,0.00,,,0.00,VWS V14.01,2013-07-04 04:16:00,
2013-07-04 00:21:00,76.0,0.0,30.89,SSW,202,5.0,6.0,0,0.00,,,0.00,VWS V14.01,2013-07-04 04:21:00,
2013-07-04 00:26:00,76.0,0.0,30.89,SSW,202,0.0,5.0,0,0.00,,,0.00,VWS V14.01,2013-07-04 04:26:00,
2013-07-04 00:31:00,76.0,0.0,30.89,SSW,202,4.0,5.0,0,0.00,,,0.00,VWS V14.01,2013-07-04 04:31:00,
2013-07-04 00:36:00,76.0,0.0,30.91,SSW,202,0.0,4.0,0,0.00,,,0.00,VWS V14.01,2013-07-04 04:36:00,
2013-07-04 00:41:00,76.0,0.0,30.91,SSW,202,0.0,1.0,0,0.00,,,0.00,VWS V14.01,2013-07-04 04:41:00,
2013-07-04 00:46:00,76.0,0.0,30.91,SSW,202,0.0,2.0,0,0.00,,,0.00,VWS V14.01,2013-07-04 04:46:00,
2013-07-04 00:51:00,76.0,0.0,30.91,SSW,202,0.0,4.0,0,0.00,,,0.00,VWS V14.01,2013-07-04 04:51:00,
2013-07-04 00:56:00,76.0,0.0,30.91,SSW,202,0.0,5.0,0,0.00,,,0.00,VWS V14.01,2013-07-04 04:56:00,
2013-07-04 01:01:00,76.0,0.0,30.91,SSW,202,0.0,7.0,0,0.00,,,0.00,VWS V14.01,2013-07-04 05:01:00,
2013-07-04 01:06:00,76.0,0.0,30.92,SSW,202,5.0,6.0,0,0.00,,,0.00,VWS V14.01,2013-07-04 05:06:00,
2013-07-04 01:11:00,76.0,0.0,30.92,SSW,202,3.0,8.0,0,0.00,,,0.00,VWS V14.01,2013-07-04 05:11:00,
2013-07-04 01:16:00,76.0,0.0,30.93,South,180,5.0,7.0,0,0.00,,,0.00,VWS V14.01,2013-07-04 05:16:00,
2013-07-04 01:21:00,76.0,0.0,30.93,South,180,6.0,8.0,0,0.00,,,0.00,VWS V14.01,2013-07-04 05:21:00,
2013-07-04 01:26:00,76.0,0.0,30.93,SSW,202,0.0,7.0,0,0.00,,,0.00,VWS V14.01,2013-07-04 05:26:00,
2013-07-04 01:31:00,76.0,0.0,30.93,SW,225,3.0,5.0,0,0.00,,,0.00,VWS V14.01,2013-07-04 05:31:00,
2013-07-04 01:36:00,76.0,0.0,30.94,SSW,202,2.0,7.0,0,0.00,,,0.00,VWS V14.01,2013-07-04 05:36:00,
2013-07-04 01:41:00,76.0,0.0,30.94,SSW,202,0.0,7.0,0,0.00,,,0.00,VWS V14.01,2013-07-04 05:41:00,
2013-07-04 01:46:00,76.0,0.0,30.94,SSW,202,4.0,6.0,0,0.00,,,0.00,VWS V14.01,2013-07-04 05:46:00,
2013-07-04 01:51:00,76.0,0.0,30.94,SSW,202,3.0,6.0,0,0.00,,,0.00,VWS V14.01,2013-07-04 05:51:00,
2013-07-04 01:56:00,76.0,0.0,30.95,SSW,202,5.0,7.0,0,0.00,,,0.00,VWS V14.01,2013-07-04 05:56:00,
2013-07-04 02:01:00,76.0,0.0,30.95,SSW,202,4.0,9.0,0,0.00,,,0.00,VWS V14.01,2013-07-04 06:01:00,
2013-07-04 02:06:00,76.0,0.0,30.95,SSW,202,3.0,8.0,0,0.00,,,0.00,VWS V14.01,2013-07-04 06:06:00,
2013-07-04 02:11:00,76.0,0.0,30.95,SSW,202,4.0,7.0,0,0.00,,,0.00,VWS V14.01,2013-07-04 06:11:00,
2013-07-04 02:16:00,76.0,0.0,30.95,SSW,202,7.0,8.0,0,0.00,,,0.00,VWS V14.01,2013-07-04 06:16:00,
2013-07-04 02:21:00,76.0,0.0,30.95,SSW,202,8.0,9.0,0,0.00,,,0.00,VWS V14.01,2013-07-04 06:21:00,
2013-07-04 02:26:00,76.0,0.0,30.96,SSW,202,4.0,8.0,0,0.00,,,0.00,VWS V14.01,2013-07-04 06:26:00,
2013-07-04 02:31:00,76.0,0.0,30.96,SSW,202,8.0,10.0,0,0.00,,,0.00,VWS V14.01,2013-07-04 06:31:00,
2013-07-04 02:36:00,76.0,0.0,30.96,SSW,202,6.0,9.0,0,0.00,,,0.00,VWS V14.01,2013-07-04 06:36:00,
2013-07-04 02:41:00,76.0,0.0,30.96,SSW,202,5.0,9.0,0,0.00,,,0.00,VWS V14.01,2013-07-04 06:41:00,
2013-07-04 02:46:00,76.0,0.0,30.97,SSW,202,6.0,8.0,0,0.00,,,0.00,VWS V14.01,2013-07-04 06:46:00,
2013-07-04 02:51:00,76.0,0.0,30.97,SSW,202,6.0,8.0,0,0.00,,,0.00,VWS V14.01,2013-07-04 06:51:00,
2013-07-04 02:56:00,76.0,0.0,30.97,SSW,202,5.0,7.0,0,0.00,,,0.00,VWS V14.01,2013-07-04 06:56:00,
2013-07-04 03:01:00,76.0,0.0,30.97,SSW,202,4.0,7.0,0,0.00,,,0.00,VWS V14.01,2013-07-04 07:01:00,
2013-07-04 03:06:00,76.0,0.0,30.97,SSW,202,4.0,6.0,0,0.00,,,0.00,VWS V14.01,2013-07-04 07:06:00,
2013-07-04 03:11:00,76.0,0.0,30.97,SW,225,0.0,7.0,0,0.00,,,0.00,VWS V14.01,2013-07-04 07:11:00,
2013-07-04 03:16:00,76.0,0.0,30.98,SW,225,0.0,6.0,0,0.00,,,0.00,VWS V14.01,2013-07-04 07:16:00,
2013-07-04 03:21:00,76.0,0.0,30.98,SW,225,0.0,5.0,0,0.00,,,0.00,VWS V14.01,2013-07-04 07:21:00,
2013-07-04 03:26:00,75.0,0.0,30.98,SW,225,0.0,3.0,0,0.00,,,0.00,VWS V14.01,2013-07-04 07:26:00,
2013-07-04 03:31:00,75.0,0.0,30.98,SW,225,0.0,1.0,0,0.00,,,0.00,VWS V14.01,2013-07-04 07:31:00,
2013-07-04 03:36:00,75.0,0.0,30.99,SW,225,0.0,0.0,0,0.00,,,0.00,VWS V14.01,2013-07-04 07:36:00,
2013-07-04 03:41:00,75.0,0.0,30.99,SSW,202,0.0,4.0,0,0.00,,,0.00,VWS V14.01,2013-07-04 07:41:00,
2013-07-04 03:47:00,75.0,0.0,31.00,SSW,202,0.0,3.0,0,0.00,,,0.00,VWS V14.01,2013-07-04 07:47:00,
2013-07-04 03:52:00,75.0,0.0,31.00,SSW,202,0.0,0.0,0,0.00,,,0.00,VWS V14.01,2013-07-04 07:52:00,
2013-07-04 03:57:00,75.0,0.0,31.01,SSW,202,0.0,4.0,0,0.00,,,0.00,VWS V14.01,2013-07-04 07:57:00,
2013-07-04 04:02:00,75.0,0.0,31.01,SSW,202,0.0,5.0,0,0.00,,,0.00,VWS V14.01,2013-07-04 08:02:00,
2013-07-04 04:07:00,75.0,0.0,31.01,SSW,202,0.0,4.0,0,0.00,,,0.00,VWS V14.01,2013-07-04 08:07:00,
2013-07-04 04:12:00,75.0,0.0,31.01,SSW,202,0.0,6.0,0,0.00,,,0.00,VWS V14.01,2013-07-04 08:12:00,
2013-07-04 04:17:00,75.0,0.0,31.01,SSW,202,0.0,3.0,0,0.00,,,0.00,VWS V14.01,2013-07-04 08:17:00,
2013-07-04 04:22:00,75.0,0.0,31.01,SSW,202,0.0,0.0,0,0.00,,,0.00,VWS V14.01,2013-07-04 08:22:00,
2013-07-04 04:27:00,75.0,0.0,31.02,SSW,202,2.0,4.0,0,0.00,,,0.00,VWS V14.01,2013-07-04 08:27:00,
2013-07-04 04:32:00,75.0,0.0,31.02,SSW,202,0.0,4.0,0,0.00,,,0.00,VWS V14.01,2013-07-04 08:32:00,
2013-07-04 04:37:00,75.0,0.0,31.03,SSW,202,0.0,0.0,0,0.00,,,0.00,VWS V14.01,2013-07-04 08:37:00,
2013-07-04 04:42:00,75.0,0.0,31.03,SSW,202,0.0,0.0,0,0.00,,,0.00,VWS V14.01,2013-07-04 08:42:00,
2013-07-04 04:47:00,75.0,0.0,31.03,SSW,202,0.0,0.0,0,0.00,,,0.00,VWS V14.01,2013-07-04 08:47:00,
2013-07-04 04:52:00,75.0,0.0,31.03,SSW,202,0.0,0.0,0,0.00,,,0.00,VWS V14.01,2013-07-04 08:52:00,
2013-07-04 04:57:00,75.0,0.0,31.04,SSW,202,0.0,0.0,0,0.00,,,0.00,VWS V14.01,2013-07-04 08:57:00,
2013-07-04 05:02:00,74.0,0.0,31.04,SSW,202,0.0,0.0,0,0.00,,,0.00,VWS V14.01,2013-07-04 09:02:00,
2013-07-04 05:07:00,75.0,0.0,31.04,SSW,202,0.0,0.0,0,0.00,,,0.00,VWS V14.01,2013-07-04 09:07:00,
2013-07-04 05:12:00,74.0,0.0,31.04,SSW,202,0.0,0.0,0,0.00,,,0.00,VWS V14.01,2013-07-04 09:12:00,
2013-07-04 05:17:00,74.0,0.0,31.05,SSW,202,0.0,0.0,0,0.00,,,0.00,VWS V14.01,2013-07-04 09:17:00,
2013-07-04 05:22:00,74.0,0.0,31.05,SSW,202,0.0,0.0,0,0.00,,,0.00,VWS V14.01,2013-07-04 09:22:00,
2013-07-04 05:27:00,74.0,0.0,31.05,SSW,202,0.0,0.0,0,0.00,,,0.00,VWS V14.01,2013-07-04 09:27:00,
2013-07-04 05:32:00,74.0,0.0,31.05,SSW,202,0.0,0.0,0,0.00,,,0.00,VWS V14.01,2013-07-04 09:32:00,
2013-07-04 05:37:00,74.0,0.0,31.06,SSW,202,0.0,0.0,0,0.00,,,0.00,VWS V14.01,2013-07-04 09:37:00,
2013-07-04 05:42:00,74.0,0.0,31.06,SSW,202,0.0,0.0,0,0.00,,,0.00,VWS V14.01,2013-07-04 09:42:00,
2013-07-04 05:47:00,74.0,0.0,31.06,SSW,202,0.0,0.0,0,0.00,,,0.00,VWS V14.01,2013-07-04 09:47:00,
2013-07-04 05:52:00,74.0,0.0,31.06,SSW,202,0.0,0.0,0,0.00,,,0.00,VWS V14.01,2013-07-04 09:52:00,
2013-07-04 05:57:00,74.0,0.0,31.07,SSW,202,0.0,0.0,0,0.00,,,0.00,VWS V14.01,2013-07-04 09:57:00,
2013-07-04 06:02:00,74.0,0.0,31.07,SSW,202,0.0,0.0,0,0.00,,,0.00,VWS V14.01,2013-07-04 10:02:00,
2013-07-04 06:07:00,74.0,0.0,31.07,SSW,202,0.0,0.0,0,0.00,,,0.00,VWS V14.01,2013-07-04 10:07:00,
2013-07-04 06:12:00,74.0,0.0,31.07,SSW,202,0.0,0.0,0,0.00,,,0.00,VWS V14.01,2013-07-04 10:12:00,
2013-07-04 06:17:00,74.0,0.0,31.08,SSW,202,0.0,0.0,0,0.00,,,0.00,VWS V14.01,2013-07-04 10:17:00,
2013-07-04 06:22:00,74.0,0.0,31.08,SSW,202,0.0,0.0,0,0.00,,,0.00,VWS V14.01,2013-07-04 10:22:00,
2013-07-04 06:27:00,74.0,0.0,31.08,SSW,202,0.0,0.0,0,0.00,,,0.00,VWS V14.01,2013-07-04 10:27:00,
2013-07-04 06:32:00,75.0,0.0,31.08,SSW,202,0.0,0.0,0,0.00,,,0.00,VWS V14.01,2013-07-04 10:32:00,
2013-07-04 06:37:00,75.0,0.0,31.06,SSW,202,0.0,0.0,0,0.00,,,0.00,VWS V14.01,2013-07-04 10:37:00,
2013-07-04 06:42:00,76.0,0.0,31.06,SSW,202,0.0,0.0,0,0.00,,,0.00,VWS V14.01,2013-07-04 10:42:00,
2013-07-04 06:47:00,76.0,0.0,31.04,SSW,202,0.0,0.0,0,0.00,,,0.00,VWS V14.01,2013-07-04 10:47:00,
2013-07-04 06:52:00,76.0,0.0,31.04,South,180,0.0,1.0,0,0.00,,,0.00,VWS V14.01,2013-07-04 10:52:00,
2013-07-04 06:57:00,76.0,0.0,31.03,South,180,7.0,7.0,0,0.00,,,0.00,VWS V14.01,2013-07-04 10:57:00,
2013-07-04 07:02:00,76.0,0.0,31.03,South,180,5.0,7.0,0,0.00,,,0.00,VWS V14.01,2013-07-04 11:02:00,
2013-07-04 07:07:00,76.0,0.0,31.00,South,180,6.0,8.0,0,0.00,,,0.00,VWS V14.01,2013-07-04 11:07:00,
2013-07-04 07:12:00,76.0,0.0,31.00,South,180,5.0,7.0,0,0.00,,,0.00,VWS V14.01,2013-07-04 11:12:00,
2013-07-04 07:17:00,76.0,0.0,30.97,SSW,202,6.0,7.0,0,0.00,,,0.00,VWS V14.01,2013-07-04 11:17:00,
2013-07-04 07:22:00,77.0,0.0,30.97,SSW,202,0.0,7.0,0,0.00,,,0.00,VWS V14.01,2013-07-04 11:22:00,
2013-07-04 07:27:00,77.0,0.0,30.93,SSE,157,4.0,6.0,0,0.00,,,0.00,VWS V14.01,2013-07-04 11:27:00,
2013-07-04 07:32:00,77.0,0.0,30.88,South,180,3.0,6.0,0,0.00,,,0.00,VWS V14.01,2013-07-04 11:32:00,
2013-07-04 07:37:00,77.0,0.0,30.88,SSW,202,7.0,8.0,0,0.00,,,0.00,VWS V14.01,2013-07-04 11:37:00,
2013-07-04 07:42:00,78.0,38.3,30.82,SSE,157,4.0,8.0,24,0.00,,,0.00,VWS V14.01,2013-07-04 11:42:00,
2013-07-04 07:47:00,78.0,45.0,30.82,SSE,157,4.0,6.0,31,0.00,,,0.00,VWS V14.01,2013-07-04 11:47:00,
2013-07-04 07:52:00,78.0,60.0,30.75,SSE,157,3.0,6.0,54,0.00,,,0.00,VWS V14.01,2013-07-04 11:52:00,
2013-07-04 07:57:00,78.0,47.4,30.75,SSE,157,3.0,6.0,34,0.00,,,0.00,VWS V14.01,2013-07-04 11:57:00,
2013-07-04 08:02:00,78.0,67.0,30.68,SSE,157,0.0,6.0,69,0.00,,,0.00,VWS V14.01,2013-07-04 12:02:00,
2013-07-04 08:07:00,78.0,60.5,30.68,SSE,157,4.0,6.0,55,0.00,,,0.00,VWS V14.01,2013-07-04 12:07:00,
2013-07-04 08:12:00,78.0,70.6,30.60,SSE,157,2.0,5.0,78,0.00,,,0.00,VWS V14.01,2013-07-04 12:12:00,
2013-07-04 08:17:00,78.0,64.8,30.60,SSE,157,4.0,6.0,64,0.00,,,0.00,VWS V14.01,2013-07-04 12:17:00,
2013-07-04 08:22:00,79.0,74.8,30.53,SSE,157,3.0,5.0,87,0.00,,,0.00,VWS V14.01,2013-07-04 12:22:00,
2013-07-04 08:27:00,79.0,67.6,30.53,SSE,157,1.0,4.0,68,0.00,,,0.00,VWS V14.01,2013-07-04 12:27:00,
2013-07-04 08:32:00,79.0,79.0,30.48,SSE,157,9.0,9.0,100,0.00,,,0.00,VWS V14.01,2013-07-04 12:32:00,
2013-07-04 08:37:00,79.0,76.8,30.48,SSE,157,7.0,10.0,93,0.00,,,0.00,VWS V14.01,2013-07-04 12:37:00,
2013-07-04 08:42:00,79.0,79.0,30.39,South,180,11.0,12.0,100,0.00,,,0.00,VWS V14.01,2013-07-04 12:42:00,
2013-07-04 08:47:00,79.0,79.0,30.39,SSE,157,10.0,12.0,100,0.00,,,0.00,VWS V14.01,2013-07-04 12:47:00,
2013-07-04 08:52:00,79.0,79.0,30.34,SSE,157,11.0,13.0,100,0.00,,,0.00,VWS V14.01,2013-07-04 12:52:00,
2013-07-04 08:57:00,79.0,79.0,30.34,SSE,157,11.0,13.0,100,0.00,,,0.00,VWS V14.01,2013-07-04 12:57:00,
2013-07-04 09:02:00,79.0,79.0,30.29,SSE,157,10.0,12.0,100,0.00,,,0.00,VWS V14.01,2013-07-04 13:02:00,
2013-07-04 09:07:00,79.0,79.0,30.29,South,180,10.0,12.0,100,0.00,,,0.00,VWS V14.01,2013-07-04 13:07:00,
2013-07-04 09:12:00,79.0,79.0,30.24,South,180,11.0,14.0,100,0.00,,,0.00,VWS V14.01,2013-07-04 13:12:00,
2013-07-04 09:17:00,79.0,79.0,30.24,SSE,157,9.0,13.0,100,0.00,,,0.00,VWS V14.01,2013-07-04 13:17:00,
2013-07-04 09:23:00,79.0,79.0,30.24,South,180,10.0,13.0,100,0.00,,,0.00,VWS V14.01,2013-07-04 13:23:00,
2013-07-04 09:28:00,80.0,80.0,30.37,SSE,157,10.0,12.0,100,0.00,,,0.00,VWS V14.01,2013-07-04 13:28:00,
2013-07-04 09:33:00,80.0,80.0,30.38,SSE,157,9.0,12.0,100,0.00,,,0.00,VWS V14.01,2013-07-04 13:33:00,
2013-07-04 09:38:00,80.0,80.0,30.38,SSE,157,12.0,15.0,100,0.00,,,0.00,VWS V14.01,2013-07-04 13:38:00,
2013-07-04 09:43:00,80.0,80.0,30.39,South,180,11.0,13.0,100,0.00,,,0.00,VWS V14.01,2013-07-04 13:43:00,
2013-07-04 09:48:00,80.0,80.0,30.39,South,180,11.0,15.0,100,0.00,,,0.00,VWS V14.01,2013-07-04 13:48:00,
2013-07-04 09:53:00,80.0,80.0,30.40,SSE,157,9.0,11.0,100,0.00,,,0.00,VWS V14.01,2013-07-04 13:53:00,
2013-07-04 09:58:00,81.0,81.0,30.40,SSE,157,7.0,10.0,100,0.00,,,0.00,VWS V14.01,2013-07-04 13:58:00,
2013-07-04 10:03:00,80.0,80.0,30.41,SE,135,7.0,7.0,100,0.00,,,0.00,VWS V14.01,2013-07-04 14:03:00,
2013-07-04 10:08:00,80.0,80.0,30.41,SSE,157,5.0,8.0,100,0.00,,,0.00,VWS V14.01,2013-07-04 14:08:00,
2013-07-04 10:13:00,80.0,80.0,30.37,South,180,8.0,9.0,100,0.00,,,0.00,VWS V14.01,2013-07-04 14:13:00,
2013-07-04 10:18:00,80.0,80.0,30.37,SSE,157,6.0,8.0,100,0.00,,,0.00,VWS V14.01,2013-07-04 14:18:00,
2013-07-04 10:23:00,80.0,80.0,30.33,SSE,157,10.0,10.0,100,0.00,,,0.00,VWS V14.01,2013-07-04 14:23:00,
2013-07-04 10:28:00,80.0,80.0,30.33,SSE,157,10.0,13.0,100,0.00,,,0.00,VWS V14.01,2013-07-04 14:28:00,
2013-07-04 10:33:00,81.0,81.0,30.36,SSE,157,11.0,12.0,100,0.00,,,0.00,VWS V14.01,2013-07-04 14:33:00,
2013-07-04 10:38:00,81.0,81.0,30.36,SSE,157,11.0,12.0,100,0.00,,,0.00,VWS V14.01,2013-07-04 14:38:00,
2013-07-04 10:43:00,81.0,81.0,30.37,SSE,157,11.0,11.0,100,0.00,,,0.00,VWS V14.01,2013-07-04 14:43:00,
2013-07-04 10:48:00,81.0,81.0,30.37,South,180,13.0,13.0,100,0.00,,,0.00,VWS V14.01,2013-07-04 14:48:00,
2013-07-04 10:53:00,81.0,81.0,30.29,SSE,157,9.0,13.0,100,0.00,,,0.00,VWS V14.01,2013-07-04 14:53:00,
2013-07-04 10:58:00,80.0,80.0,30.29,South,180,11.0,13.0,100,0.00,,,0.00,VWS V14.01,2013-07-04 14:58:00,
2013-07-04 11:03:00,81.0,81.0,30.30,South,180,12.0,14.0,100,0.00,,,0.00,VWS V14.01,2013-07-04 15:03:00,
2013-07-04 11:08:00,81.0,81.0,30.30,SSE,157,14.0,14.0,100,0.00,,,0.00,VWS V14.01,2013-07-04 15:08:00,
2013-07-04 11:13:00,81.0,81.0,30.32,SSE,157,10.0,14.0,100,0.00,,,0.00,VWS V14.01,2013-07-04 15:13:00,
2013-07-04 11:18:00,82.0,82.0,30.32,SSE,157,12.0,14.0,100,0.00,,,0.00,VWS V14.01,2013-07-04 15:18:00,
2013-07-04 11:23:00,81.0,81.0,30.29,South,180,11.0,16.0,100,0.00,,,0.00,VWS V14.01,2013-07-04 15:23:00,
2013-07-04 11:28:00,81.0,79.1,30.29,South,180,12.0,14.0,94,0.00,,,0.00,VWS V14.01,2013-07-04 15:28:00,
2013-07-04 11:33:00,82.0,82.0,30.33,SSE,157,10.0,14.0,100,0.00,,,0.00,VWS V14.01,2013-07-04 15:33:00,
2013-07-04 11:38:00,82.0,82.0,30.33,SSE,157,10.0,13.0,100,0.00,,,0.00,VWS V14.01,2013-07-04 15:38:00,
2013-07-04 11:43:00,81.0,81.0,30.33,South,180,10.0,12.0,100,0.00,,,0.00,VWS V14.01,2013-07-04 15:43:00,
2013-07-04 11:48:00,82.0,82.0,30.33,SSE,157,11.0,13.0,100,0.00,,,0.00,VWS V14.01,2013-07-04 15:48:00,
2013-07-04 11:53:00,81.0,81.0,30.33,SSE,157,15.0,20.0,100,0.00,,,0.00,VWS V14.01,2013-07-04 15:53:00,
2013-07-04 11:58:00,81.0,81.0,30.33,SSE,157,16.0,19.0,100,0.00,,,0.00,VWS V14.01,2013-07-04 15:58:00,
2013-07-04 12:03:00,81.0,81.0,30.32,SSE,157,14.0,17.0,100,0.00,,,0.00,VWS V14.01,2013-07-04 16:03:00,
2013-07-04 12:08:00,81.0,81.0,30.32,SSE,157,14.0,16.0,100,0.00,,,0.00,VWS V14.01,2013-07-04 16:08:00,
2013-07-04 12:13:00,81.0,81.0,30.32,SSE,157,16.0,16.0,100,0.00,,,0.00,VWS V14.01,2013-07-04 16:13:00,
2013-07-04 12:18:00,81.0,81.0,30.32,SSE,157,12.0,16.0,100,0.00,,,0.00,VWS V14.01,2013-07-04 16:18:00,
2013-07-04 12:23:00,81.0,81.0,30.29,SSW,202,5.0,18.0,100,0.00,,,0.00,VWS V14.01,2013-07-04 16:23:00,
2013-07-04 12:28:00,81.0,81.0,30.29,SSE,157,11.0,16.0,100,0.00,,,0.00,VWS V14.01,2013-07-04 16:28:00,
2013-07-04 12:33:00,81.0,81.0,30.32,SSW,202,9.0,16.0,100,0.00,,,0.00,VWS V14.01,2013-07-04 16:33:00,
2013-07-04 12:38:00,81.0,81.0,30.32,South,180,8.0,11.0,100,0.00,,,0.00,VWS V14.01,2013-07-04 16:38:00,
2013-07-04 12:43:00,81.0,81.0,30.32,South,180,11.0,13.0,100,0.00,,,0.00,VWS V14.01,2013-07-04 16:43:00,
2013-07-04 12:48:00,82.0,82.0,30.32,South,180,14.0,16.0,100,0.00,,,0.00,VWS V14.01,2013-07-04 16:48:00,
2013-07-04 12:53:00,82.0,82.0,30.31,South,180,12.0,15.0,100,0.00,,,0.00,VWS V14.01,2013-07-04 16:53:00,
2013-07-04 12:58:00,82.0,82.0,30.31,SSW,202,11.0,18.0,100,0.00,,,0.00,VWS V14.01,2013-07-04 16:58:00,
2013-07-04 13:03:00,82.0,82.0,30.31,South,180,12.0,16.0,100,0.00,,,0.00,VWS V14.01,2013-07-04 17:03:00,
2013-07-04 13:08:00,82.0,79.1,30.31,SSW,202,15.0,20.0,91,0.00,,,0.00,VWS V14.01,2013-07-04 17:08:00,
2013-07-04 13:13:00,82.0,82.0,30.31,SSE,157,12.0,17.0,100,0.00,,,0.00,VWS V14.01,2013-07-04 17:13:00,
2013-07-04 13:18:00,82.0,82.0,30.31,South,180,13.0,17.0,100,0.00,,,0.00,VWS V14.01,2013-07-04 17:18:00,
2013-07-04 13:23:00,82.0,81.1,30.31,SSW,202,15.0,19.0,97,0.00,,,0.00,VWS V14.01,2013-07-04 17:23:00,
2013-07-04 13:28:00,82.0,82.0,30.31,South,180,10.0,17.0,100,0.00,,,0.00,VWS V14.01,2013-07-04 17:28:00,
2013-07-04 13:33:00,82.0,82.0,30.30,South,180,13.0,16.0,100,0.00,,,0.00,VWS V14.01,2013-07-04 17:33:00,
2013-07-04 13:38:00,82.0,77.8,30.30,SSW,202,10.0,19.0,87,0.00,,,0.00,VWS V14.01,2013-07-04 17:38:00,
2013-07-04 13:43:00,82.0,79.4,30.31,SSW,202,12.0,16.0,92,0.00,,,0.00,VWS V14.01,2013-07-04 17:43:00,
2013-07-04 13:48:00,82.0,74.1,30.31,SSW,202,14.0,20.0,77,0.00,,,0.00,VWS V14.01,2013-07-04 17:48:00,
2013-07-04 13:53:00,82.0,79.1,30.29,SSW,202,11.0,19.0,91,0.00,,,0.00,VWS V14.01,2013-07-04 17:53:00,
2013-07-04 13:58:00,82.0,77.8,30.29,South,180,10.0,17.0,87,0.00,,,0.00,VWS V14.01,2013-07-04 17:58:00,
2013-07-04 14:03:00,82.0,73.7,30.29,South,180,14.0,17.0,76,0.00,,,0.00,VWS V14.01,2013-07-04 18:03:00,
2013-07-04 14:08:00,82.0,76.3,30.29,South,180,12.0,16.0,83,0.00,,,0.00,VWS V14.01,2013-07-04 18:08:00,
2013-07-04 14:13:00,82.0,74.8,30.29,SE,135,13.0,16.0,79,0.00,,,0.00,VWS V14.01,2013-07-04 18:13:00,
2013-07-04 14:18:00,82.0,79.4,30.29,SSE,157,15.0,16.0,92,0.00,,,0.00,VWS V14.01,2013-07-04 18:18:00,
2013-07-04 14:23:00,82.0,79.4,30.28,South,180,12.0,16.0,92,0.00,,,0.00,VWS V14.01,2013-07-04 18:23:00,
2013-07-04 14:28:00,82.0,80.4,30.28,SSE,157,15.0,15.0,95,0.00,,,0.00,VWS V14.01,2013-07-04 18:28:00,
2013-07-04 14:33:00,82.0,79.4,30.28,South,180,10.0,16.0,92,0.00,,,0.00,VWS V14.01,2013-07-04 18:33:00,
2013-07-04 14:38:00,82.0,76.3,30.28,SSE,157,13.0,14.0,83,0.00,,,0.00,VWS V14.01,2013-07-04 18:38:00,
2013-07-04 14:44:00,82.0,82.0,30.28,South,180,16.0,18.0,100,0.00,,,0.00,VWS V14.01,2013-07-04 18:44:00,
2013-07-04 14:49:00,82.0,65.8,30.28,SSE,157,15.0,17.0,58,0.00,,,0.00,VWS V14.01,2013-07-04 18:49:00,
2013-07-04 14:54:00,82.0,76.0,30.27,SSE,157,13.0,17.0,82,0.00,,,0.00,VWS V14.01,2013-07-04 18:54:00,
2013-07-04 14:58:00,82.0,76.0,30.27,SE,135,10.0,14.0,82,0.00,,,0.00,VWS V14.01,2013-07-04 18:58:00,
2013-07-04 15:03:00,82.0,73.7,30.22,South,180,16.0,17.0,76,0.00,,,0.00,VWS V14.01,2013-07-04 19:03:00,
2013-07-04 15:08:00,82.0,74.1,30.22,SSE,157,14.0,16.0,77,0.00,,,0.00,VWS V14.01,2013-07-04 19:08:00,
2013-07-04 15:13:00,82.0,78.1,30.20,South,180,11.0,16.0,88,0.00,,,0.00,VWS V14.01,2013-07-04 19:13:00,
2013-07-04 15:19:00,82.0,78.4,30.20,South,180,12.0,17.0,89,0.00,,,0.00,VWS V14.01,2013-07-04 19:19:00,
2013-07-04 15:24:00,83.0,79.8,30.18,SSW,202,14.0,17.0,90,0.00,,,0.00,VWS V14.01,2013-07-04 19:24:00,
2013-07-04 15:29:00,82.0,71.7,30.18,SSW,202,13.0,19.0,71,0.00,,,0.00,VWS V14.01,2013-07-04 19:29:00,
2013-07-04 15:34:00,82.0,80.4,30.19,SSW,202,14.0,19.0,95,0.00,,,0.00,VWS V14.01,2013-07-04 19:34:00,
2013-07-04 15:39:00,82.0,71.3,30.19,South,180,16.0,21.0,70,0.00,,,0.00,VWS V14.01,2013-07-04 19:39:00,
2013-07-04 15:44:00,82.0,76.3,30.20,South,180,14.0,20.0,83,0.00,,,0.00,VWS V14.01,2013-07-04 19:44:00,
2013-07-04 15:49:00,82.0,71.3,30.20,South,180,18.0,18.0,70,0.00,,,0.00,VWS V14.01,2013-07-04 19:49:00,
2013-07-04 15:54:00,82.0,59.2,30.19,SSW,202,13.0,19.0,46,0.00,,,0.00,VWS V14.01,2013-07-04 19:54:00,
2013-07-04 15:59:00,83.0,57.6,30.19,SSW,202,10.0,17.0,42,0.00,,,0.00,VWS V14.01,2013-07-04 19:59:00,
2013-07-04 16:04:00,82.0,63.7,30.16,South,180,13.0,18.0,54,0.00,,,0.00,VWS V14.01,2013-07-04 20:04:00,
2013-07-04 16:09:00,83.0,68.7,30.16,South,180,14.0,17.0,62,0.00,,,0.00,VWS V14.01,2013-07-04 20:09:00,
2013-07-04 16:14:00,83.0,57.6,30.16,SSW,202,11.0,20.0,42,0.00,,,0.00,VWS V14.01,2013-07-04 20:14:00,
2013-07-04 16:19:00,82.0,73.7,30.16,SSE,157,16.0,19.0,76,0.00,,,0.00,VWS V14.01,2013-07-04 20:19:00,
2013-07-04 16:24:00,82.0,63.7,30.17,SSE,157,16.0,20.0,54,0.00,,,0.00,VWS V14.01,2013-07-04 20:24:00,
2013-07-04 16:29:00,82.0,56.0,30.17,South,180,16.0,21.0,41,0.00,,,0.00,VWS V14.01,2013-07-04 20:29:00,
2013-07-04 16:34:00,82.0,53.9,30.18,SSW,202,12.0,19.0,38,0.00,,,0.00,VWS V14.01,2013-07-04 20:34:00,
2013-07-04 16:39:00,82.0,62.1,30.18,South,180,13.0,17.0,51,0.00,,,0.00,VWS V14.01,2013-07-04 20:39:00,
2013-07-04 16:44:00,82.0,55.3,30.18,SSE,157,12.0,17.0,40,0.00,,,0.00,VWS V14.01,2013-07-04 20:44:00,
2013-07-04 16:49:00,82.0,60.4,30.18,South,180,15.0,18.0,48,0.00,,,0.00,VWS V14.01,2013-07-04 20:49:00,
2013-07-04 16:54:00,82.0,58.0,30.19,SSW,202,12.0,18.0,44,0.00,,,0.00,VWS V14.01,2013-07-04 20:54:00,
2013-07-04 16:59:00,82.0,44.8,30.19,South,180,17.0,17.0,27,0.00,,,0.00,VWS V14.01,2013-07-04 20:59:00,
2013-07-04 17:04:00,82.0,59.2,30.18,SSW,202,13.0,18.0,46,0.00,,,0.00,VWS V14.01,2013-07-04 21:04:00,
2013-07-04 17:09:00,82.0,37.0,30.18,SSW,202,15.0,16.0,20,0.00,,,0.00,VWS V14.01,2013-07-04 21:09:00,
2013-07-04 17:14:00,82.0,44.8,30.18,SSE,157,15.0,17.0,27,0.00,,,0.00,VWS V14.01,2013-07-04 21:14:00,
2013-07-04 17:20:00,82.0,-0.3,30.18,South,180,13.0,17.0,4,0.00,,,0.00,VWS V14.01,2013-07-04 21:20:00,
2013-07-04 17:25:00,82.0,-0.3,30.18,SSE,157,9.0,19.0,4,0.00,,,0.00,VWS V14.01,2013-07-04 21:25:00,
2013-07-04 17:30:00,82.0,22.4,30.18,SSE,157,10.0,14.0,11,0.00,,,0.00,VWS V14.01,2013-07-04 21:30:00,
2013-07-04 17:35:00,82.0,24.4,30.18,SSE,157,10.0,13.0,12,0.00,,,0.00,VWS V14.01,2013-07-04 21:35:00,
2013-07-04 17:40:00,82.0,41.7,30.18,South,180,11.0,16.0,24,0.00,,,0.00,VWS V14.01,2013-07-04 21:40:00,
2013-07-04 17:45:00,82.0,29.8,30.18,SSE,157,13.0,18.0,15,0.00,,,0.00,VWS V14.01,2013-07-04 21:45:00,
2013-07-04 17:50:00,82.0,31.4,30.18,SSW,202,15.0,16.0,16,0.00,,,0.00,VWS V14.01,2013-07-04 21:50:00,
2013-07-04 17:55:00,82.0,42.8,30.18,South,180,17.0,18.0,25,0.00,,,0.00,VWS V14.01,2013-07-04 21:55:00,
2013-07-04 18:00:00,82.0,39.4,30.18,South,180,13.0,18.0,22,0.00,,,0.00,VWS V14.01,2013-07-04 22:00:00,
2013-07-04 18:05:00,81.0,46.7,30.18,SSW,202,14.0,17.0,30,0.00,,,0.00,VWS V14.01,2013-07-04 22:05:00,
2013-07-04 18:10:00,81.0,55.8,30.18,South,180,11.0,16.0,42,0.00,,,0.00,VWS V14.01,2013-07-04 22:10:00,
2013-07-04 18:15:00,81.0,64.8,30.18,SSW,202,12.0,17.0,58,0.00,,,0.00,VWS V14.01,2013-07-04 22:15:00,
2013-07-04 18:20:00,81.0,59.5,30.18,SSW,202,13.0,18.0,48,0.00,,,0.00,VWS V14.01,2013-07-04 22:20:00,
2013-07-04 18:25:00,81.0,57.1,30.18,SSW,202,10.0,16.0,44,0.00,,,0.00,VWS V14.01,2013-07-04 22:25:00,
2013-07-04 18:30:00,81.0,57.7,30.18,South,180,16.0,20.0,45,0.00,,,0.00,VWS V14.01,2013-07-04 22:30:00,
2013-07-04 18:35:00,81.0,68.6,30.19,South,180,13.0,19.0,66,0.00,,,0.00,VWS V14.01,2013-07-04 22:35:00,
2013-07-04 18:40:00,81.0,73.5,30.19,South,180,12.0,15.0,78,0.00,,,0.00,VWS V14.01,2013-07-04 22:40:00,
2013-07-04 18:45:00,81.0,69.9,30.19,SSW,202,10.0,17.0,69,0.00,,,0.00,VWS V14.01,2013-07-04 22:45:00,
2013-07-04 18:50:00,81.0,74.6,30.19,SSW,202,9.0,14.0,81,0.00,,,0.00,VWS V14.01,2013-07-04 22:50:00,
2013-07-04 18:55:00,81.0,71.1,30.19,SSW,202,8.0,14.0,72,0.00,,,0.00,VWS V14.01,2013-07-04 22:55:00,
2013-07-04 19:00:00,81.0,73.9,30.19,SSW,202,10.0,14.0,79,0.00,,,0.00,VWS V14.01,2013-07-04 23:00:00,
2013-07-04 19:05:00,81.0,75.7,30.19,SSW,202,11.0,12.0,84,0.00,,,0.00,VWS V14.01,2013-07-04 23:05:00,
2013-07-04 19:10:00,81.0,81.0,30.19,SSW,202,5.0,12.0,100,0.00,,,0.00,VWS V14.01,2013-07-04 23:10:00,
2013-07-04 19:15:00,80.0,80.0,30.20,South,180,13.0,14.0,100,0.00,,,0.00,VWS V14.01,2013-07-04 23:15:00,
2013-07-04 19:20:00,80.0,80.0,30.20,SW,225,10.0,15.0,100,0.00,,,0.00,VWS V14.01,2013-07-04 23:20:00,
2013-07-04 19:25:00,80.0,80.0,30.20,SSW,202,10.0,16.0,100,0.00,,,0.00,VWS V14.01,2013-07-04 23:25:00,
2013-07-04 19:30:00,80.0,80.0,30.20,SSW,202,12.0,14.0,100,0.00,,,0.00,VWS V14.01,2013-07-04 23:30:00,
2013-07-04 19:35:00,80.0,80.0,30.21,SSW,202,10.0,16.0,100,0.00,,,0.00,VWS V14.01,2013-07-04 23:35:00,
2013-07-04 19:40:00,80.0,80.0,30.21,SSW,202,10.0,15.0,100,0.00,,,0.00,VWS V14.01,2013-07-04 23:40:00,
2013-07-04 19:45:00,79.0,79.0,30.22,SSW,202,8.0,13.0,100,0.00,,,0.00,VWS V14.01,2013-07-04 23:45:00,
2013-07-04 19:50:00,79.0,79.0,30.22,SSW,202,6.0,11.0,100,0.00,,,0.00,VWS V14.01,2013-07-04 23:50:00,
2013-07-04 19:55:00,79.0,79.0,30.23,SW,225,0.0,13.0,100,0.00,,,0.00,VWS V14.01,2013-07-04 23:55:00,
2013-07-04 20:00:00,79.0,79.0,30.23,WSW,247,0.0,0.0,100,0.00,,,0.00,VWS V14.01,2013-07-05 00:00:00,
2013-07-04 20:05:00,79.0,79.0,30.24,WSW,247,4.0,7.0,100,0.00,,,0.00,VWS V14.01,2013-07-05 00:05:00,
2013-07-04 20:10:00,79.0,79.0,30.24,WSW,247,1.0,7.0,100,0.00,,,0.00,VWS V14.01,2013-07-05 00:10:00,
2013-07-04 20:11:00,79.0,79.0,30.24,WSW,247,5.0,7.0,100,0.00,,,0.00,VWS V14.01,2013-07-05 00:11:00,
2013-07-04 20:16:00,79.0,79.0,30.25,SSW,202,7.0,9.0,100,0.00,,,0.00,VWS V14.01,2013-07-05 00:16:00,
2013-07-04 20:21:00,79.0,79.0,30.25,SSW,202,9.0,14.0,100,0.00,,,0.00,VWS V14.01,2013-07-05 00:21:00,
2013-07-04 20:26:00,79.0,79.0,30.25,SSW,202,8.0,12.0,100,0.00,,,0.00,VWS V14.01,2013-07-05 00:26:00,
2013-07-04 20:31:00,79.0,79.0,30.25,SSW,202,6.0,10.0,100,0.00,,,0.00,VWS V14.01,2013-07-05 00:31:00,
2013-07-04 20:36:00,78.0,78.0,30.25,SSW,202,8.0,10.0,100,0.00,,,0.00,VWS V14.01,2013-07-05 00:36:00,
2013-07-04 20:41:00,78.0,78.0,30.25,SSW,202,3.0,8.0,100,0.00,,,0.00,VWS V14.01,2013-07-05 00:41:00,
2013-07-04 20:46:00,78.0,77.7,30.25,SSW,202,3.0,8.0,99,0.00,,,0.00,VWS V14.01,2013-07-05 00:46:00,
2013-07-04 20:51:00,78.0,75.5,30.25,SSW,202,3.0,6.0,92,0.00,,,0.00,VWS V14.01,2013-07-05 00:51:00,
2013-07-04 20:56:00,78.0,73.1,30.26,SSW,202,4.0,5.0,85,0.00,,,0.00,VWS V14.01,2013-07-05 00:56:00,
2013-07-04 21:01:00,78.0,70.2,30.26,SSW,202,6.0,6.0,77,0.00,,,0.00,VWS V14.01,2013-07-05 01:01:00,
2013-07-04 21:06:00,78.0,69.8,30.26,SSW,202,3.0,6.0,76,0.00,,,0.00,VWS V14.01,2013-07-05 01:06:00,
2013-07-04 21:11:00,78.0,67.0,30.26,SSW,202,4.0,7.0,69,0.00,,,0.00,VWS V14.01,2013-07-05 01:11:00,
2013-07-04 21:16:00,77.0,63.0,30.28,SSW,202,0.0,5.0,62,0.00,,,0.00,VWS V14.01,2013-07-05 01:16:00,
2013-07-04 21:21:00,77.0,60.1,30.28,SSW,202,3.0,5.0,56,0.00,,,0.00,VWS V14.01,2013-07-05 01:21:00,
2013-07-04 21:26:00,77.0,56.4,30.29,SW,225,3.0,6.0,49,0.00,,,0.00,VWS V14.01,2013-07-05 01:26:00,
2013-07-04 21:31:00,77.0,52.8,30.29,SSW,202,0.0,6.0,43,0.00,,,0.00,VWS V14.01,2013-07-05 01:31:00,
2013-07-04 21:36:00,77.0,49.5,30.28,SSW,202,0.0,5.0,38,0.00,,,0.00,VWS V14.01,2013-07-05 01:36:00,
2013-07-04 21:41:00,77.0,48.8,30.28,SSW,202,0.0,3.0,37,0.00,,,0.00,VWS V14.01,2013-07-05 01:41:00,
2013-07-04 21:46:00,77.0,44.9,30.29,SW,225,0.0,3.0,32,0.00,,,0.00,VWS V14.01,2013-07-05 01:46:00,
2013-07-04 21:51:00,77.0,42.3,30.29,SSW,202,0.0,0.0,29,0.00,,,0.00,VWS V14.01,2013-07-05 01:51:00,
2013-07-04 21:56:00,77.0,35.3,30.30,SSW,202,0.0,3.0,22,0.00,,,0.00,VWS V14.01,2013-07-05 01:56:00,
2013-07-04 22:01:00,77.0,27.4,30.30,SW,225,0.0,3.0,16,0.00,,,0.00,VWS V14.01,2013-07-05 02:01:00,
2013-07-04 22:06:00,77.0,8.3,30.31,SSW,202,0.0,3.0,7,0.00,,,0.00,VWS V14.01,2013-07-05 02:06:00,
2013-07-04 22:11:00,77.0,11.2,30.31,SSW,202,0.0,0.0,8,0.00,,,0.00,VWS V14.01,2013-07-05 02:11:00,
2013-07-04 22:16:00,77.0,13.9,30.32,SSW,202,0.0,0.0,9,0.00,,,0.00,VWS V14.01,2013-07-05 02:16:00,
2013-07-04 22:22:00,76.0,4.2,30.32,SSW,202,0.0,5.0,6,0.00,,,0.00,VWS V14.01,2013-07-05 02:22:00,
2013-07-04 22:27:00,76.0,0.0,30.32,SSW,202,0.0,0.0,0,0.00,,,0.00,VWS V14.01,2013-07-05 02:27:00,
2013-07-04 22:32:00,76.0,0.0,30.33,SSW,202,0.0,0.0,0,0.00,,,0.00,VWS V14.01,2013-07-05 02:32:00,
2013-07-04 22:37:00,76.0,0.0,30.33,SSW,202,0.0,0.0,0,0.00,,,0.00,VWS V14.01,2013-07-05 02:37:00,
2013-07-04 22:42:00,76.0,0.0,30.33,SSW,202,0.0,0.0,0,0.00,,,0.00,VWS V14.01,2013-07-05 02:42:00,
2013-07-04 22:47:00,76.0,0.0,30.33,SW,225,1.0,4.0,0,0.00,,,0.00,VWS V14.01,2013-07-05 02:47:00,
2013-07-04 22:52:00,76.0,0.0,30.33,SSW,202,2.0,5.0,0,0.00,,,0.00,VWS V14.01,2013-07-05 02:52:00,
2013-07-04 22:57:00,76.0,0.0,30.33,SSW,202,4.0,5.0,0,0.00,,,0.00,VWS V14.01,2013-07-05 02:57:00,
2013-07-04 23:02:00,76.0,0.0,30.33,SSW,202,4.0,6.0,0,0.00,,,0.00,VWS V14.01,2013-07-05 03:02:00,
2013-07-04 23:07:00,76.0,0.0,30.33,SSW,202,0.0,6.0,0,0.00,,,0.00,VWS V14.01,2013-07-05 03:07:00,
2013-07-04 23:12:00,76.0,0.0,30.34,SW,225,3.0,5.0,0,0.00,,,0.00,VWS V14.01,2013-07-05 03:12:00,
2013-07-04 23:17:00,76.0,0.0,30.34,SW,225,0.0,6.0,0,0.00,,,0.00,VWS V14.01,2013-07-05 03:17:00,
2013-07-04 23:22:00,76.0,0.0,30.35,SW,225,0.0,7.0,0,0.00,,,0.00,VWS V14.01,2013-07-05 03:22:00,
2013-07-04 23:27:00,76.0,0.0,30.35,SSW,202,0.0,5.0,0,0.00,,,0.00,VWS V14.01,2013-07-05 03:27:00,
2013-07-04 23:32:00,76.0,0.0,30.35,SSW,202,4.0,6.0,0,0.00,,,0.00,VWS V14.01,2013-07-05 03:32:00,
2013-07-04 23:37:00,76.0,0.0,30.35,SSW,202,6.0,7.0,0,0.00,,,0.00,VWS V14.01,2013-07-05 03:37:00,
2013-07-04 23:42:00,77.0,0.0,30.35,SSW,202,3.0,7.0,0,0.00,,,0.00,VWS V14.01,2013-07-05 03:42:00,
2013-07-04 23:47:00,76.0,0.0,30.35,SSW,202,3.0,6.0,0,0.00,,,0.00,VWS V14.01,2013-07-05 03:47:00,
2013-07-04 23:52:00,76.0,0.0,30.36,SSW,202,0.0,6.0,0,0.00,,,0.00,VWS V14.01,2013-07-05 03:52:00,
2013-07-04 23:57:00,76.0,0.0,30.36,SSW,202,0.0,5.0,0,0.00,,,0.00,VWS V14.01,2013-07-05 03:57:00,